Find OneWeb SL0368

NORAD ID: 49294 Int'l Des: 2021-090 Owner: ONEWEBN Country: UK Constellation: oneweb operational
LEOCIRCULARPOLARONEWEB_TYPE

当前视图

正在加载3D地球...

About OneWeb SL0368

OneWeb SL0368 (NORAD 49294) is a oneweb constellation satellite launched Oct 14, 2021 by ONEWEBN of UK. It operates in LEO, CIRCULAR, POLAR, ONEWEB_TYPE orbit with a mass of 148.00 kg.

关于 OneWeb SL0368

正在加载描述...

即将过境

Passes for default location (London). Set your location on the main map for personalized predictions.

高度历史

Loading altitude history...

两行轨道根数

1 49294U 21090R 26171.31885024 .00000107 00000-0 23205-3 0 9991
2 49294 87.9185 273.8263 0001377 88.5175 271.6116 13.20770338231397
Epoch: Jun 20, 2026 • Age: 15 hours

当前状态

高度 1186.5 km
速度 7.26 km/s
星下点 38.69°N, 30.34°E
发射日期 Oct 14, 2021
运行时间 4.6 years
类型 internet

技术详情

分类 Payload
质量 148.00 kg
干质量 140.00 kg
总质量 148.00 kg
长度 1.30 m
直径 1.00 m
跨度 5.00 m
形状 Trapezoid+2 pan
制造商 ONEWUS
平台类型 ARROW
阶段状态 In Orbit
所有者/国家 ONEWEBN/UK

Most Searched